Location: Six Mile Lake
(44.9000°N, 79.7170°W)
Time: 15:48:41
(UTC-04:00)

AO-7 - Visible Passes

Search period start: 29 June 2022 00:00
Search period end: 09 July 2022 00:00
Orbit: 1439 x 1459 km, 101.9° (Epoch: 29 June)

Date Brightness Start Highest point End Pass type
(mag) Time Alt. Az. Time Alt. Az. Time Alt. Az.
29 Jun ? 03:48:20 10° ENE 03:50:24 11° E 03:52:27 10° E visible
30 Jun ? 04:37:30 10° NE 04:44:19 27° E 04:51:06 10° SSE visible
02 Jul ? 04:30:40 10° NE 04:37:10 24° E 04:43:37 10° SE visible
04 Jul ? 04:23:53 10° NE 04:30:00 22° E 04:36:05 10° SE visible
06 Jul ? 04:17:09 10° NE 04:22:50 20° E 04:28:29 10° SE visible
08 Jul ? 04:10:29 10° NE 04:15:39 17° E 04:20:47 10° SE visible
